{"data":{"norad_id":67257,"intl_designator":"2025-313K","name":"SITRO-AIS-59","alt_names":[],"object_type":"PAYLOAD","status":"ACTIVE","operator":null,"country":"CIS","launch_date":"2025-12-28","launch_site_code":"VOSTO","launch_vehicle":null,"mission":null,"orbit_class":"UNKNOWN","rcs_meters":null,"size_class":null,"mass_kg":null,"dimensions":null,"purposes":[],"wikipedia_slug":null,"has_3d_model":false,"image_url":null,"decayed_at":null,"tle_current":{"epoch":"2026-05-25T03:39:34.105248Z","epoch_age_seconds":61899,"freshness":"FRESH","line1":"1 67257U 25313K   26145.15247807  .00008710  00000+0  37601-3 0  9998","line2":"2 67257  97.3937 220.1100 0017070  87.7034 272.6156 15.22618502 22440","mean_motion":15.22618502,"eccentricity":0.001707,"inclination_deg":97.3937,"raan_deg":220.11,"arg_perigee_deg":87.7034,"mean_anomaly_deg":272.6156,"bstar":0.00037601,"rev_number":2244,"period_min":94.57391973817,"perigee_km":486.20845976913,"apogee_km":509.68340690354,"semimajor_km":6876.0829333363,"source":"CELESTRAK","updated_at":"2026-05-25T13:38:06.846215Z"}}}